Location: Staunton
(38.1490°N, 79.0720°W)
Time: 14:23:08
(UTC-04:00)

ISS - Pass Details

Date: 25 May 2017
Orbit: 402 x 408 km, 51.6° (Epoch: 29 May)

Event Time Altitude Azimuth Distance (km) Brightness Sun altitude
Rises 04:29:47 0° 310° (NW) 2,325 0.0 -15.0°
Reaches altitude 10° 04:31:52 10° 311° (NW) 1,461 -1.1 -14.7°
Maximum altitude 04:35:08 81° 37° (NE) 411 -3.8 -14.2°
Drops below altitude 10° 04:38:24 10° 127° (SE) 1,449 -0.9 -13.7°
Sets 04:40:28 0° 129° (SE) 2,303 0.1 -13.4°
